Погода в Буланаше

Россия / Свердловская область     57°16′36″N   61°59′26″E
темп.,
°C
ветер,
м/с
пор.,
м/с
влажн.,
%
обл.,
%
осадки,
мм/ч
давл.,
гПа
погр.,
м
16 октября, сб
сб1623:00+8ю51362100 0.0 1023444
02:00+7ю41263100 0.0 1021347
05:00+7ю41262100 0.0 1019346
08:00+7ююз31161100 0.0 1018325
11:00+9зюз41068100 0.0 1018779
14:00+9зюз475758 0.0 10191329
17:00+8зюз4756100 0.0 1019882
20:00+7з4867100 0.0 1020840
17 октября, вс
вс1723:00+6зюз397465 0.0 1020487
02:00+4юз28825 0.0 1020200
05:00+3юз398228 0.0 1021205
08:00+4юз41172100 0.0 1020356
11:00+7юз4956100 0.0 1019510
14:00+9юз474441 0.0 10181006
17:00+8юз49487 0.0 1017401
20:00+6юз312625 0.0 1018325
18 октября, пн
пн1823:00+4юз3106989 0.0 1018264
02:00+3юз397599 0.0 1018176
05:00+4юз2981100 0.0 1017176
08:00+6ююз31184100 0.0 1016414
11:00+8юз3972100 0.0 1016455
14:00+8ююз3978100 0.1 1015484
17:00+9зюз51278100 0.9 10141278
20:00+8юз2577100 0.1 1014153
19 октября, вт
вт1923:00+7юз2384100 0.1 101457
02:00+9юз41170100 0.0 1013640
05:00+7ю2877100 0.0 1013181
08:00+7ююз2573100 0.0 1012121
11:00+10юз31058100 0.0 1012668
14:00+12юз3748100 0.0 10111110
17:00+10зюз235598 0.0 101090
20:00+9юз0061100 0.0 101010
20 октября, ср
ср2023:00+9юз2461100 0.0 100991
02:00+8зсз1468100 0.0 1008154
05:00+8ююз2575100 0.3 1007213
08:00+7ю1382100 0.1 1006143
11:00+9ю3567100 0.1 1006447
14:00+11юз3555100 0.0 10051079
17:00+6зсз4786100 0.1 1006423
20:00+3сз4893100 0.0 1008566